Location: Arboyeti
(42.1122°N, 44.6017°E)
Time: 02:07:58
(UTC+00:00)

ISS - Pass Details

Date: 29 September 2021
Orbit: 417 x 423 km, 51.6° (Epoch: 27 October)

Event Time Altitude Azimuth Distance (km) Brightness Sun altitude
Rises 16:42:56 0° 307° (NW) 2,367 1.3 -22.1°
Reaches altitude 10° 16:45:11 10° 318° (NW) 1,502 -0.1 -22.5°
Enters shadow 16:47:22 27° 352° (N) 838 -2.0 -22.9°
